www.pogodaiklimat.ru

Погода и климат >> Архив погоды >> Польша >> Wroclaw


АРХИВ ПОГОДЫ в Wroclaw

Время (UTC), дата Ветер
(напр.,м/с)
 
Видим.   Явления Облачность Т
(С)
Тd
(С)
f
(%)
Тe
(С)
Тes
(С)
Комфортность P
(гПа)
Po
(гПа)
Тmin
(С)
Tmax
(С)
R
(мм)
R24
(мм)
S
(см)
23 13.09 С 2 40 км 9/0
[Ac As]
+16.3 +12.5 78 +16 +16 тепло 1018.5 1004.0
22 13.09 СЗ 1 40 км 9/5 1000 м
[Sc Ac As]
+16.9 +12.4 75 +18 +18 тепло 1018.2 1003.8
00 14.09 С 2 25 км слабый ливневой дождь 10/6 600 м
[Cb cap Ac As]
+15.2 +13.2 88 +15 +15 тепло 1018.8 1004.3 0.0
01 14.09 С 2 30 км в посл. час ливневой дождь 10/9 600 м
[Cb cap]
+14.9 +13.6 92 +15 +15 тепло 1018.8 1004.3
02 14.09 С 2 25 км слабый ливневой дождь 10/9 600 м
[Cb cap]
+14.8 +13.5 92 +14 +14 тепло 1018.7 1004.2
03 14.09 С 2 12 км слабый дождь {ливн. осадки} 10/9 150 м
[Sc]
+14.8 +13.7 93 +14 +14 тепло 1018.7 1004.2
05 14.09 СЗ 1 5000 м слабый дождь 10/9 120 м
[Sc]
+14.6 +13.6 94 +15 +15 тепло 1019.0 1004.4
04 14.09 СЗ 1 7000 м слабый дождь 10/9 120 м
[Sc]
+14.7 +13.7 94 +15 +15 тепло 1018.8 1004.3
06 14.09 СЗ 1 4000 м слабый дождь {ливн. осадки} 10/9 90 м
[Frnb]
+14.5 +13.5 94 +15 +15 тепло 1019.4 1004.8 +14.5 +18.5 0.7
07 14.09 С 2 4500 м слабый дождь 10/9 90 м
[Frnb]
+14.5 +13.7 95 +14 +14 тепло 1019.6 1005.0
08 14.09 С 1 10 км слабый дождь 10/9 90 м
[Frnb]
+14.7 +13.9 95 +15 +15 тепло 1020.1 1005.5
09 14.09 С 1 12 км слабый дождь 10/9 90 м
[Frnb]
+14.9 +13.8 93 +15 +16 по сезону 1020.5 1005.9
11 14.09 С 1 4000 м слабый дождь 10/9 90 м
[Frnb]
+15.1 +14.3 95 +16 +16 по сезону 1020.5 1005.9
10 14.09 С 2 4000 м слабый дождь 10/9 90 м
[Frnb]
+14.8 +13.8 94 +14 +15 прохладно 1020.7 1006.1
12 14.09 С 1 10 км в посл. час дождь {морось} 10/9 100 м
[St]
+15.4 +14.4 94 +16 +16 по сезону 1020.2 1005.7 4
13 14.09 С 2 12 км 10/9 150 м
[St]
+15.6 +14.3 92 +15 +16 по сезону 1020.2 1005.7
14 14.09 СЗ 1 8000 м слабая морось 10/9 90 м
[St]
+15.5 +14.5 94 +16 +16 по сезону 1020.2 1005.7
15 14.09 СЗ 1 7000 м слабая морось 10/9 90 м
[St]
+15.3 +14.5 95 +16 +16 по сезону 1020.1 1005.6
17 14.09 С 1 6000 м слабая морось 10/10 90 м
[St]
+15.4 +14.4 94 +16 +16 тепло 1020.2 1005.7
16 14.09 С 1 15 км в посл. час морось 10/9 90 м
[St]
+15.4 +14.4 94 +16 +16 тепло 1020.0 1005.5
18 14.09 С 1 3000 м морось 10/10 60 м
[St]
+15.1 +14.5 96 +16 +16 тепло 1020.2 1005.7 +14.4 +15.7 4
19 14.09 С 1 5000 м слабая морось 10/10 60 м
[St]
+15.0 +14.4 96 +15 +15 тепло 1020.5 1005.9
20 14.09 СЗ 1 3500 м слабая морось 10/10 60 м
[St]
+15.0 +14.4 96 +15 +15 тепло 1020.7 1006.1
21 14.09 СЗ 1 2000 м морось 10/10 60 м
[St]
+15.0 +14.5 97 +15 +15 тепло 1020.5 1005.9
23 14.09 СЗ 1 5000 м дымка 10/9 90 м
[St]
+15.0 +14.4 96 +15 +15 тепло 1019.9 1005.4
22 14.09 СЗ 1 5000 м в посл. час морось 10/10 90 м
[St]
+15.0 +14.5 97 +15 +15 тепло 1020.4 1005.8
00 15.09 С 1 4000 м дымка {морось} 10/9 60 м
[St]
+14.7 +14.1 96 +15 +15 тепло 1019.7 1005.1 0.2
01 15.09 СЗ 1 3200 м дымка 10/9 90 м
[Sc]
+14.4 +13.9 97 +15 +15 тепло 1019.6 1005.0
02 15.09 штиль 0 1300 м местами туман поземный 9/9 90 м
[St]
+14.4 +13.9 97 +14 +14 тепло 1019.5 1004.9
03 15.09 СЗ 1 8000 м дымка 10/9 120 м
[St]
+14.2 +13.6 96 +14 +14 тепло 1019.3 1004.7
05 15.09 ЮЗ 1 1200 м местами туман поземный 9/5 120 м
[St Ac trans]
+13.1 +12.5 96 +13 +13 тепло 1019.9 1005.3
04 15.09 ЮЗ 1 5000 м дымка 9/6 120 м
[St Ac trans]
+13.9 +13.1 95 +14 +14 тепло 1019.6 1005.0
06 15.09 З 1 300 м туман 9/8 30 м
[St Ac trans]
+13.7 +13.2 97 +14 +14 тепло 1020.3 1005.7 +12.9 +15.2 0.2
07 15.09 З 2 8000 м в посл. час туман 9/9 90 м
[St]
+14.2 +13.7 97 +14 +14 тепло 1020.8 1006.2
08 15.09 З 2 25 км 8/3 180 м
[St Ac trans]
+15.7 +14.2 91 +16 +18 тепло 1021.1 1006.6
09 15.09 СЗ 3 30 км {туман} 4/1 300 м
[Cu hum Ac trans]
+17.9 +13.6 76 +18 +22 тепло 1021.4 1007.0
11 15.09 СЗ 4 40 км 3/3 600 м
[Cu med, cong]
+19.7 +10.9 57 +21 +25 комфорт 1021.2 1006.9
10 15.09 СЗ 3 30 км 3/3 600 м
[Cu med, cong]
+19.1 +13.3 69 +20 +26 тепло 1021.2 1006.8
12 15.09 З 5 40 км {туман} 8/8 1000 м
[Cu Sc]
+20.5 +10.0 51 +22 +23 комфорт 1021.1 1006.8
13 15.09 СЗ 3 40 км 8/8 1500 м
[Cu Sc]
+20.3 +9.5 50 +22 +23 комфорт 1021.3 1007.0
14 15.09 СЗ 4-10
{10}
50 км 4/3 1500 м
[Sc diur, vesp Ac trans]
+20.5 +7.8 44 +22 +24 комфорт 1021.5 1007.2
15 15.09 СЗ 4-9
{10}
50 км 3/1 1500 м
[Sc diur, vesp Ci fib]
+20.3 +7.3 43 +21 +23 комфорт 1021.5 1007.2
17 15.09 СЗ 1 50 км 5/0
[Ac trans Ci fib]
+18.5 +7.3 48 +20 +20 тепло 1022.3 1007.9
16 15.09 СЗ 3
{9}
50 км 5/0
[Ci fib]
+19.9 +6.9 43 +21 +21 комфорт 1021.9 1007.6
18 15.09 СЗ 1
{10}
50 км 3/0
[Ci fib]
+16.6 +7.5 55 +18 +18 тепло 1023.0 1008.5 +13.7 +21.4
19 15.09 ЮЗ 1 50 км ясно +13.9 +7.2 64 +14 +14 тепло 1023.7 1009.0
20 15.09 З 2 50 км 1/0
[Ci fib]
+13.6 +7.4 66 +13 +13 тепло 1023.9 1009.2
21 15.09 З 1 50 км ясно +12.8 +7.2 69 +13 +13 по сезону 1024.2 1009.5
23 15.09 З 2 50 км ясно +12.5 +7.2 70 +12 +12 тепло 1025.0 1010.3
22 15.09 З 2 50 км ясно +12.8 +7.2 69 +12 +12 тепло 1024.7 1010.0
00 16.09 З 1 50 км 1/0
[Ac trans]
+12.0 +7.1 72 +12 +12 по сезону 1025.1 1010.3
01 16.09 СЗ 2 50 км 1/0
[Ac trans]
+12.3 +7.2 71 +11 +11 тепло 1025.5 1010.7
02 16.09 З 2 50 км 1/0
[Ac trans]
+11.1 +6.8 75 +10 +10 по сезону 1025.3 1010.5
03 16.09 З 2 50 км 1/0
[Ac trans]
+11.1 +7.0 76 +10 +10 по сезону 1025.4 1010.6
05 16.09 З 2 50 км 8/0
[Ac trans Ci fib]
+10.4 +7.3 81 +9 +9 тепло 1025.8 1010.9
04 16.09 З 2 50 км 5/0
[Ac trans Ci fib]
+10.6 +7.3 80 +9 +9 по сезону 1025.6 1010.7
06 16.09 З 1 40 км 4/0
[Ac trans Ci fib]
+11.8 +8.8 82 +12 +13 тепло 1026.2 1011.4 +10.2 +16.7
07 16.09 З 1 40 км 8/0
[Ac trans Cs]
+14.1 +9.3 73 +15 +17 тепло 1026.5 1011.8
08 16.09 С 1 50 км 6/0
[Ac trans Cs]
+16.8 +9.9 64 +18 +23 тепло 1026.7 1012.1
09 16.09 З 1 50 км 8/1 1000 м
[Cu med, cong Ac trans Cs]
+18.6 +10.2 58 +20 +25 тепло 1026.4 1011.9
11 16.09 З 2 50 км 9/1 1000 м
[Cu med, cong Cs]
+19.6 +9.5 52 +21 +28 комфорт 1025.6 1011.2
10 16.09 Ю 2 50 км 9/1 1000 м
[Cu med, cong Cs]
+19.5 +9.9 54 +21 +28 комфорт 1026.0 1011.6
12 16.09 З 3 50 км 9/3 1500 м
[Cu med, cong Cs]
+21.3 +8.9 45 +23 +27 комфорт 1025.0 1010.7
13 16.09 Ю 3 50 км 9/1 1500 м
[Cu med, cong Cs]
+21.4 +9.0 45 +23 +27 комфорт 1024.4 1010.1
14 16.09 ЮВ 3 50 км 9/1 1500 м
[Sc diur, vesp Cs]
+21.7 +8.2 42 +23 +26 комфорт 1023.8 1009.5
15 16.09 Ю 2 50 км 8/1 1500 м
[Sc diur, vesp Cs]
+21.7 +9.2 45 +23 +25 комфорт 1023.4 1009.1
17 16.09 В 2 50 км 9/0
[Cs]
+18.5 +9.6 56 +19 +19 тепло 1023.0 1008.6
16 16.09 ЮВ 2 50 км 8/1 1500 м
[Sc diur, vesp Cs]
+20.4 +10.2 52 +23 +23 комфорт 1022.9 1008.6
18 16.09 В 1 50 км 9/0
[Cs]
+16.2 +9.6 65 +17 +17 тепло 1023.3 1008.8 +11.8 +22.3
19 16.09 ЮВ 1 50 км 9/0
[Cs]
+15.4 +9.7 69 +16 +16 тепло 1023.5 1008.9
20 16.09 ЮВ 2 50 км 9/0
[Cs]
+14.5 +9.5 72 +14 +14 тепло 1023.5 1008.9
21 16.09 ЮВ 2 50 км 9/0
[Cs]
+13.8 +9.6 76 +13 +13 по сезону 1023.5 1008.8
23 16.09 ЮВ 2 40 км 5/0
[Cs]
+12.7 +9.5 81 +12 +12 тепло 1023.1 1008.4
22 16.09 ЮВ 2 40 км 8/0
[Cs]
+12.9 +9.7 81 +12 +12 тепло 1023.3 1008.6
00 17.09 В 1 40 км 8/0
[Cs]
+12.3 +9.7 84 +12 +12 по сезону 1022.8 1008.1
01 17.09 ЮВ 2 25 км 6/0
[Cs]
+11.6 +9.5 87 +10 +10 тепло 1022.7 1007.9
02 17.09 В 2 25 км 8/0
[Cs]
+11.4 +9.5 88 +10 +10 по сезону 1022.7 1007.9
03 17.09 В 1 20 км 3/0
[Ci fib]
+11.4 +9.6 89 +11 +11 по сезону 1022.6 1007.8
05 17.09 В 1 15 км местами туман поземный 9/0
[Ac trans Cs]
+9.3 +8.5 95 +9 +9 тепло 1022.8 1007.9
04 17.09 ЮВ 1 12 км местами туман поземный 4/0
[Ci fib]
+9.9 +8.8 93 +9 +9 по сезону 1022.8 1007.9
06 17.09 ЮВ 2 15 км 9/0
[Cs]
+12.5 +10.0 85 +12 +12 тепло 1022.7 1008.0 +8.7 +16.2
07 17.09 ЮВ 2 25 км 9/0
[Cs]
+14.7 +11.1 79 +14 +16 тепло 1022.6 1008.0
08 17.09 ЮВ 2 40 км 3/0
[Ci sp]
+18.5 +11.8 65 +20 +24 тепло 1022.4 1008.0
09 17.09 Ю 3 40 км 5/0
[Ci sp]
+21.3 +11.6 54 +23 +28 комфорт 1021.7 1007.4
11 17.09 З 2 40 км 4/0
[Ci sp]
+24.5 +10.4 41 +26 +34 жарко 1021.2 1007.1
10 17.09 ЮВ 1 40 км 4/0
[Ci sp]
+23.4 +11.4 47 +26 +35 жарко 1021.4 1007.2
12 17.09 В 2 40 км 5/0
[Ci sp]
+25.1 +10.5 40 +26 +34 жарко 1021.0 1006.9
13 17.09 З 1 40 км 9/0
[Cs]
+26.0 +10.6 38 +27 +33 жарко 1020.5 1006.5
14 17.09 ЮЗ 1 40 км 9/0
[Cs]
+25.8 +9.2 35 +26 +30 жарко 1019.9 1005.9
15 17.09 ЮВ 3 40 км 9/0
[Cs]
+25.3 +10.3 39 +26 +28 жарко 1019.7 1005.7
17 17.09 В 1 30 км 9/0
[Cs]
+22.0 +10.8 49 +24 +24 комфорт 1019.6 1005.4
16 17.09 ЮВ 2 40 км 9/0
[Cs]
+24.3 +11.3 44 +26 +26 жарко 1019.6 1005.5
18 17.09 штиль 0 40 км 9/0
[Cs]
+19.4 +11.2 59 +20 +20 тепло 1020.1 1005.8 +12.5 +26.1
19 17.09 штиль 0 40 км 9/0
[Cs]
+18.0 +11.3 65 +18 +18 тепло 1020.3 1005.9
20 17.09 В 1 40 км 9/0
[Cs]
+16.5 +10.8 69 +17 +17 тепло 1020.3 1005.8
21 17.09 Ю 1 35 км 9/0
[Cs]
+15.8 +11.2 74 +17 +17 тепло 1020.1 1005.6
23 17.09 штиль 0 25 км 8/0
[Cs]
+14.6 +11.2 80 +14 +14 тепло 1020.0 1005.4
22 17.09 В 2 30 км 8/0
[Cs]
+15.2 +11.0 76 +15 +15 тепло 1019.9 1005.4
00 18.09 СВ 1 30 км 8/0
[Cs]
+12.8 +10.2 84 +13 +13 тепло 1020.1 1005.4
01 18.09 В 1 20 км 8/0
[Cs]
+11.8 +10.5 92 +12 +12 тепло 1019.9 1005.2
02 18.09 В 1 15 км местами туман поземный 8/0
[Cs]
+12.2 +11.3 94 +12 +12 тепло 1019.7 1005.0
03 18.09 ЮВ 1 8000 м местами туман поземный 8/0
[Cs]
+11.7 +10.6 93 +11 +11 по сезону 1019.6 1004.9
05 18.09 В 2 900 м туман 9/0
[Cs]
+11.8 +11.3 97 +11 +11 тепло 1019.7 1005.0
04 18.09 ЮВ 2 600 м туман 8/0
[Cs]
+10.9 +10.1 95 +9 +9 по сезону 1019.6 1004.8
06 18.09 В 2 8000 м в посл. час туман 9/0
[Ac trans Cs]
+14.2 +13.2 94 +14 +14 тепло 1019.7 1005.1 +10.8 +19.4
07 18.09 ЮВ 2 13 км 9/0
[Ac trans Cs]
+17.7 +14.2 80 +18 +20 тепло 1019.8 1005.4
08 18.09 ЮВ 3 25 км 9/0
[Cs]
+21.4 +15.0 67 +25 +28 комфорт 1019.4 1005.2
09 18.09 Ю 5 35 км 9/0
[Cs]
+24.7 +14.5 53 +27 +30 жарко 1018.9 1004.8
11 18.09 Ю 6 40 км 9/0
[Cs]
+27.2 +13.9 44 +29 +32 жарко 1017.7 1003.8
10 18.09 ЮВ 5 40 км 9/0
[Cs]
+25.5 +14.9 52 +28 +32 жарко 1018.4 1004.4
12 18.09 Ю 5 40 км 9/0
[Cs]
+27.8 +14.4 44 +30 +34 жарко 1017.1 1003.2
13 18.09 Ю 7
{10}
40 км 9/0
[Cs]
+28.1 +13.6 41 +30 +31 жарко 1016.4 1002.5
14 18.09 Ю 5
{9}
40 км 9/0
[Cs]
+28.5 +13.6 40 +30 +32 жарко 1015.8 1002.0
15 18.09 Ю 5
{10}
40 км 9/0
[Cs]
+28.5 +14.0 41 +30 +31 жарко 1015.4 1001.6
17 18.09 Ю 4 40 км 9/0
[Cs]
+25.4 +12.9 46 +27 +27 жарко 1015.6 1001.6
16 18.09 Ю 5 40 км 9/0
[Cs]
+27.5 +13.8 43 +30 +30 жарко 1015.4 1001.5
18 18.09 Ю 4
{10}
40 км 9/0
[Cs]
+23.8 +12.1 48 +26 +26 жарко 1016.1 1002.0 +14.2 +29.0
19 18.09 Ю 5 40 км 8/0
[Cs]
+23.6 +12.3 49 +25 +25 комфорт 1016.5 1002.4
20 18.09 Ю 4 40 км 6/0
[Cs]
+21.8 +12.1 54 +24 +24 комфорт 1016.8 1002.6
21 18.09 Ю 2 40 км 3/0
[Ci fib]
+19.9 +11.6 59 +22 +22 комфорт 1017.1 1002.8
23 18.09 Ю 2 40 км ясно +16.8 +11.3 70 +17 +17 тепло 1017.6 1003.2
22 18.09 ЮЗ 1 40 км 1/0
[Ci fib]
+19.3 +11.6 61 +22 +22 комфорт 1017.3 1003.0
00 19.09 ЮВ 1 40 км ясно +16.0 +11.2 73 +17 +17 тепло 1017.5 1003.0
01 19.09 Ю 1 40 км ясно +17.0 +11.0 68 +18 +18 тепло 1017.3 1002.9
02 19.09 СВ 1 40 км ясно +16.3 +10.8 70 +17 +17 тепло 1017.6 1003.1
03 19.09 В 1 30 км ясно +14.0 +10.8 81 +14 +14 тепло 1017.6 1003.0
05 19.09 В 2 30 км 1/0
[Ac trans Ci fib]
+13.6 +10.8 83 +13 +13 тепло 1017.8 1003.2
04 19.09 СВ 1 30 км 1/0
[Ci fib]
+15.3 +11.7 79 +16 +16 тепло 1017.7 1003.2
06 19.09 ЮВ 1 40 км 1/0
[Ac trans Ci fib]
+17.5 +12.4 72 +19 +19 тепло 1018.1 1003.7 +13.6 +24.2
07 19.09 ЮВ 1 50 км 1/0
[Ac trans]
+21.4 +12.5 57 +24 +26 комфорт 1018.3 1004.1
08 19.09 З 2 50 км 1/0
[Ac trans]
+24.0 +13.2 51 +26 +30 жарко 1018.6 1004.5
09 19.09 СЗ 2 50 км 1/0
[Ac trans Ci sp]
+26.0 +13.1 45 +28 +34 жарко 1018.5 1004.5
11 19.09 З 3 50 км 1/0
[Ci fib]
+28.2 +13.3 40 +30 +37 жарко 1018.2 1004.3
10 19.09 СЗ 2 50 км 1/0
[Ac trans Ci sp]
+27.1 +12.7 41 +29 +36 жарко 1018.4 1004.5
12 19.09 З 2 50 км 1/0
[Ci sp]
+28.9 +13.6 39 +31 +38 жарко 1018.1 1004.2
13 19.09 З 4 50 км 1/1 2000 м
[Cu hum Ci sp]
+29.3 +13.1 37 +31 +35 жарко 1017.9 1004.1
14 19.09 З 3 50 км 3/1 2000 м
[Cu hum Ci sp]
+29.7 +12.6 35 +31 +34 жарко 1017.7 1003.9
15 19.09 З 4 50 км 4/1 1500 м
[Cu med, cong Ac trans Ci sp]
+28.3 +13.0 39 +30 +31 жарко 1017.9 1004.0
17 19.09 СЗ 1 50 км 4/1 1500 м
[Cu med, cong Ac trans Ci sp]
+24.9 +13.8 50 +27 +27 жарко 1018.3 1004.3
16 19.09 З 1 50 км 4/1 1500 м
[Cu med, cong Ac trans Ci sp]
+26.6 +13.7 45 +29 +29 жарко 1018.1 1004.1
18 19.09 ЮЗ 1 30 км 8/0
[Ac trans Ci sp]
+21.6 +14.3 63 +25 +25 комфорт 1018.8 1004.6 +17.5 +29.8
19 19.09 штиль 0 30 км 5/0
[Ac trans Ci fib]
+20.2 +14.1 68 +22 +22 комфорт 1019.0 1004.7
20 19.09 З 2 30 км 3/0
[Ci fib]
+20.5 +13.7 65 +24 +24 комфорт 1019.3 1005.0
21 19.09 СВ 1 30 км 4/0
[Ci fib]
+17.4 +12.7 74 +18 +18 тепло 1019.6 1005.2
23 19.09 В 1 30 км ясно +17.3 +13.8 80 +18 +18 тепло 1019.4 1005.0
22 19.09 ЮВ 1 30 км 3/0
[Ci fib]
+17.4 +13.5 78 +18 +18 тепло 1019.6 1005.2
00 20.09 СЗ 1 30 км ясно +17.0 +13.7 81 +18 +18 тепло 1019.5 1005.1
01 20.09 штиль 0 20 км ясно +15.2 +13.0 87 +15 +15 тепло 1019.5 1005.0
02 20.09 штиль 0 15 км местами туман поземный 1/0
[Ci fib]
+14.9 +13.6 92 +15 +15 тепло 1019.7 1005.1
03 20.09 В 1 20 км местами туман поземный ясно +13.5 +12.4 93 +14 +14 тепло 1019.7 1005.1
05 20.09 ЮВ 1 8000 м местами туман поземный 1/0
[Ac cast]
+14.1 +13.1 94 +14 +14 тепло 1019.8 1005.2
04 20.09 штиль 0 15 км местами туман поземный 1/0
[Ci fib]
+14.3 +12.8 91 +14 +14 тепло 1019.7 1005.1
06 20.09 В 1 15 км 1/0
[Ac trans]
+16.7 +14.5 87 +18 +18 тепло 1020.0 1005.5 +13.0 +21.6
07 20.09 ЮВ 2 20 км ясно +19.7 +15.6 77 +22 +25 комфорт 1020.0 1005.7
08 20.09 Ю 1 20 км ясно +23.7 +16.0 62 +27 +32 жарко 1019.8 1005.7
09 20.09 Ю 2 30 км 1/1 1000 м
[Cu hum]
+26.4 +15.1 50 +29 +35 жарко 1019.5 1005.5
11 20.09 Ю 2 40 км 1/1 1500 м
[Cu med, cong]
+29.3 +13.9 39 +31 +39 жарко 1018.4 1004.6
10 20.09 В 1 40 км 1/1 1500 м
[Cu med, cong]
+28.7 +14.5 42 +31 +39 жарко 1019.1 1005.2
12 20.09 Ю 3 40 км 1/1 2000 м
[Cu med, cong Ci fib]
+29.9 +13.2 36 +31 +37 жарко 1017.9 1004.1
13 20.09 ЮЗ 3 40 км 3/1 2000 м
[Cu med, cong Ci fib]
+30.5 +12.4 33 +31 +36 жарко 1017.3 1003.5
14 20.09 ЮЗ 2 40 км 3/3 2000 м
[Cu med, cong Ci fib]
+30.3 +11.8 32 +31 +34 жарко 1016.8 1003.0
15 20.09 ЮЗ 3 40 км 3/1 2000 м
[Cu med, cong Ac cuf Ci fib]
+29.7 +11.7 33 +30 +32 жарко 1016.5 1002.7
17 20.09 Ю 2 40 км 3/0
[Ac cuf Ci fib]
+24.6 +12.9 48 +27 +27 жарко 1016.5 1002.5
16 20.09 Ю 3 40 км 3/0
[Ac cuf Ci fib]
+28.8 +12.7 37 +30 +30 жарко 1016.4 1002.6
18 20.09 Ю 2 40 км 3/0
[Ac trans Ci fib]
+21.9 +12.7 56 +24 +24 комфорт 1016.8 1002.6 +16.7 +31.0
19 20.09 ЮВ 3 40 км 1/0
[Ac trans Ci fib]
+20.7 +13.4 63 +24 +24 комфорт 1016.8 1002.6
20 20.09 ЮВ 2 40 км ясно +20.6 +13.8 65 +24 +24 комфорт 1016.7 1002.5
21 20.09 В 1 30 км ясно +19.6 +13.8 69 +22 +22 комфорт 1016.9 1002.6

 

Местоположение метеостанции Wroclaw (Польша): широта 51.10 долгота 16.88 высота над уровнем моря 124 м.

В архиве по умолчанию представлена погода в Wroclaw за последнюю неделю. Архивные данные за месяц целиком и за предыдущие месяцы, начиная с января 2011 года, Вы можете получить, выбрав интересующий диапазон дат из раскрывающегося списка и нажав кнопку "Ввод!".


*Определитесь, кто Вы:
робот инопланетянин человек

Внимание! Время в таблицах - всемирное. Для получения местного времени необходимо прибавить поправку, которая в Wroclaw равна 1 ч.

Смотрите также архив погоды в соседних городах и на ближайших метеорологических станциях:

Погода в Legnica (Польша) (49 км)
Погода в Klodzko (Польша) (77 км)
Погода в Jelenia Gora (Польша) (79 км)
Погода в Opole (Польша) (83 км)
Погода в Leszno (Польша) (85 км)
Погода в Snezka (Чехия) (89 км)
Погода в Sniezka (Польша) (91 км)
Погода в Polom (Чехия) (92 км)
Погода в Pec pod Snezkou (Чехия) (93 км)
Погода в Serak (Чехия) (104 км)

Пояснения к столбцам:

Ветер - указаны скорость ветра в м/с - средняя за 10 мин, порывы в срок и между сроками (в фигурных скобках) и направление, откуда дует ветер: С - северный, СВ - северо-восточный, В - восточный, ЮВ - юго-восточный, Ю - южный, ЮЗ - юго-западный, З - западный, СЗ - северо-западный.
Видимость - горизонтальная дальность видимости в метрах или километрах. При видимости от 1 до 10 км при отсутствии осадков обычно наблюдается дымка, при ухудшении видимости до 1 км и менее - туман. В сухую погоду видимость может ухудшаться дымом, пылью или мглою.
Явления - указаны атмосферные явления, наблюдавшиеся в срок или в последний час перед сроком; фигурными скобками обозначены явления, наблюдавшиеся между сроками (за 1-3 часа до срока); квадратными скобками обозначены град или гололедные отложения с указанием их диаметра в мм.
Облачность - указаны через наклонную черту общая и нижняя облачность в баллах и высота нижней границы облаков в метрах; квадратными скобками обозначены формы облаков: Ci - перистые, Cs - перисто-слоистые, Cc - перисто-кучевые, Ac - высококучевые, As - высокослоистые, Sc - слоисто-кучевые, Ns - слоисто-дождевые, Cu - кучевые, Cb - кучево-дождевые. Подробнее классификацию облаков см. в Атласе облаков (PDF).
T - Температура воздуха - температура, измеренная на высоте 2 м над землей.
Td - Температура точки росы - температура, при понижении до которой содержащийся в воздухе водяной пар достигнет насыщения.
f - Относительная влажность воздуха - влажноcть воздуха, измеренная на высоте 2 м над землей.
Te - Эффективная температура - температура, которую ощущает одетый по сезону человек в тени. Характеристика душности погоды. При расчете учитывается влияние влажности воздуха и скорости ветра на теплоощущения человека.
Tes - Эффективная температура на солнце - температура, которую ощущает человек, с поправкой на солнечный нагрев. Характеристика знойности погоды. Зависит от высоты солнца над горизонтом, облачности и скорости ветра. Ночью, в пасмурную погоду, а также при ветре 12 м/с и более поправка равна нулю.
P - Атмосферное давление - приведенное к уровню моря атмосферное давление.
Po - Атмосферное давление - измеренное на уровне метеостанции атмосферное давление.
Tmin - Минимальная температура - минимум температуры воздуха на высоте 2 м над землей.
Tmax - Максимальная температура - максимум температуры воздуха на высоте 2 м над землей.
R - Количество осадков - Количество выпавших осадков за период времени, мм. При наведении курсора мыши на число - период времени, за который выпало указанное количество осадков.
R24 - Количество осадков - Количество выпавших осадков за 24 часа, мм.
S - Снежный покров - Высота снежного покрова, см. При наведении курсора мыши на число - состояние снежного покрова и степень покрытия местности в баллах.